Weather in Yaremcha

Ukraine / Ivano-Frankovsk District     48°26′55″N   24°33′11″E
temp.,
°C
wind,
m/s
gust,
m/s
humid.,
%
clouds,
%
prec.,
mm/h
press.,
hPa
HPBL,
m
12 april, mon
mon1200:00+5sw3379100 0.0 102341
03:00+4sw3376100 0.0 102339
06:00+5sw2273100 0.0 102240
09:00+8sw126793 0.0 1021112
12:00+12s125355 0.0 1020977
15:00+14w125052 0.1 10191463
18:00+13ne015731 0.2 1018940
21:00+8ssw21835 0.3 102013
13 april, tue
tue1300:00+7sw228598 0.0 102028
03:00+6wsw22835 0.0 102015
06:00+5w11915 0.0 102010
09:00+9ne118136 0.0 1019354
12:00+13ne346242 0.0 10171175
15:00+13ne346299 0.3 10161345
18:00+9nne2583100 0.6 1015348
21:00+6n1398100 0.7 1017223
14 april, wed
wed1400:00+6nne1298100 0.0 1016252
03:00+5nne1298100 0.0 1015169
06:00+3nne1298100 0.1 1015214
09:00+3nne2297100 0.1 1015351
12:00+2n2299100 0.5 1016230
15:00+1n2399100 1.3 1016159
18:00−1n2397100 1.2 1017257
21:00−2nnw2396100 2.4 1018251
15 april, thu
thu1500:00−2nnw1394100 0.1 1018237
03:00−2nnw1296100 0.2 1018178
06:00−2nnw1297100 0.9 1018170
09:000nnw1291100 1.6 1018358
12:00+2nne2292100 0.4 1018532
15:00+2nne2397100 0.9 1018343
18:00+1nne2299100 1.0 1019161
21:000nne12100100 2.0 102096
16 april, fri
fri1600:00−1nnw1199100 0.6 1020116
03:00−1nw1199100 0.9 102091
06:00−2w119999 0.1 102014
09:00+1nw118899 0.1 1020388
12:00+3n2276100 0.1 1020861
15:00+4nnw1283100 0.3 1020702
18:00+3nne1293100 0.5 1021413
21:00+1n019997 0.9 102383